Weather History for Land O' Lakes, WI

Change the Weather History Date:

Saturday, September 7, 2013

  Actual Average (KEGV) Record (KEGV)
Temperature  
Mean Temperature 66 °F -  
Max Temperature 81 °F 68 °F 87 °F (2002)
Min Temperature 52 °F 46 °F 36 °F (2011)
Cooling Degree Days 2    
Growing Degree Days 16 (Base 50)    
Moisture  
Dew Point 61 °F    
Average Humidity 83    
Maximum Humidity 99    
Minimum Humidity 60    
Precipitation  
Precipitation 0.00 in - - ()
Sea Level Pressure  
Sea Level Pressure 30.00 in    
Wind  
Wind Speed 4 mph (North)    
Max Wind Speed 15 mph    
Max Gust Speed 20 mph    
Visibility 9 miles    
Events      
Averages and records for this station are not official NWS values.
T = Trace of Precipitation, MM = Missing Value Source: NWS Daily Summary

Daily Weather History Graph

Daily Weather History Graph

Search for Another Location

Airport:

Trip Planner

Search our weather history database for the weather conditions in past years. The results will help you decide how hot, cold, wet, or windy it might be!

Date:

Astronomy

Sep. 07, 2013 Rise Set
Actual Time 6:25 AM CDT 7:23 PM CDT
Civil Twilight 5:54 AM CDT 7:53 PM CDT
Nautical Twilight 5:18 AM CDT 8:30 PM CDT
Astronomical Twilight 4:39 AM CDT 9:08 PM CDT
Moon 8:50 AM CDT (9/7) 8:09 PM CDT (9/7)
Length of Visible Light 13h 59m
Length of Day
12h 58m
Waxing Crescent, 5% of the Moon is Illuminated
Sep 7
Waxing Crescent
Sep 12
First Quarter
Sep 19
Full
Sep 26
Last Quarter
Oct 4
New

Hourly Weather History & Observations

Time (CDT) Temp. Heat Index Dew Point Humidity Pressure Visibility Wind Dir Wind Speed Gust Speed Precip Events Conditions
12:15 AM 70.5 °F - 64.4 °F 81% 29.95 in 10.0 mi SW 3.5 mph - N/A   Mostly Cloudy
12:35 AM 70.3 °F - 64.0 °F 80% 29.95 in 10.0 mi SW 3.5 mph - N/A   Overcast
12:55 AM 70.5 °F - 63.9 °F 79% 29.95 in 10.0 mi SW 3.5 mph - N/A   Mostly Cloudy
1:15 AM 69.8 °F - 63.7 °F 81% 29.95 in 10.0 mi Calm Calm - N/A   Scattered Clouds
1:35 AM 68.9 °F - 63.5 °F 83% 29.95 in 10.0 mi Calm Calm - N/A   Clear
1:55 AM 68.4 °F - 63.3 °F 84% 29.94 in 10.0 mi Calm Calm - N/A   Scattered Clouds
2:15 AM 66.6 °F - 63.0 °F 88% 29.94 in 10.0 mi Calm Calm - N/A   Scattered Clouds
2:35 AM 66.9 °F - 63.3 °F 88% 29.93 in 10.0 mi Calm Calm - N/A   Scattered Clouds
2:55 AM 66.2 °F - 62.6 °F 88% 29.93 in 10.0 mi Calm Calm - N/A   Clear
3:15 AM 64.6 °F - 62.1 °F 92% 29.93 in 10.0 mi Calm Calm - N/A   Scattered Clouds
3:35 AM 64.6 °F - 62.4 °F 93% 29.93 in 10.0 mi Calm Calm - N/A   Mostly Cloudy
3:55 AM 64.6 °F - 63.1 °F 95% 29.92 in 10.0 mi Calm Calm - N/A   Scattered Clouds
4:15 AM 65.5 °F - 63.0 °F 92% 29.92 in 10.0 mi Calm Calm - N/A   Clear
4:35 AM 63.7 °F - 62.2 °F 95% 29.92 in 10.0 mi Calm Calm - N/A   Clear
4:55 AM 63.0 °F - 62.1 °F 97% 29.92 in 7.0 mi Calm Calm - N/A   Clear
5:15 AM 62.1 °F - 61.3 °F 97% 29.92 in 4.0 mi Calm Calm - N/A   Clear
5:35 AM 61.7 °F - 61.3 °F 99% 29.93 in 2.5 mi Calm Calm - N/A   Clear
5:55 AM 61.0 °F - 60.8 °F 99% 29.92 in 5.0 mi Calm Calm - N/A   Clear
6:15 AM 61.0 °F - 60.8 °F 99% 29.93 in 4.0 mi Calm Calm - N/A   Clear
6:35 AM 59.5 °F - 59.2 °F 99% 29.94 in 2.5 mi Calm Calm - N/A   Clear
6:55 AM 59.5 °F - 59.4 °F 99% 29.94 in 3.0 mi Calm Calm - N/A   Clear
7:15 AM 60.8 °F - 60.6 °F 99% 29.94 in 4.0 mi Calm Calm - N/A   Clear
7:35 AM 63.7 °F - 63.3 °F 99% 29.94 in 10.0 mi Calm Calm - N/A   Clear
7:55 AM 68.0 °F - 63.9 °F 87% 29.94 in 10.0 mi Calm Calm - N/A   Clear
8:15 AM 70.5 °F - 64.0 °F 80% 29.94 in 10.0 mi WNW 3.5 mph - N/A   Clear
8:35 AM 72.0 °F - 64.4 °F 77% 29.94 in 10.0 mi NW 3.5 mph - N/A   Clear
8:55 AM 73.4 °F - 64.8 °F 74% 29.94 in 10.0 mi NW 4.6 mph - N/A   Clear
9:15 AM 75.2 °F - 65.7 °F 72% 29.94 in 10.0 mi North 4.6 mph - N/A   Clear
9:35 AM 76.1 °F - 66.0 °F 71% 29.94 in 10.0 mi North 6.9 mph - N/A   Clear
9:55 AM 77.0 °F - 66.6 °F 70% 29.94 in 10.0 mi North 5.8 mph - N/A   Clear
10:15 AM 77.5 °F - 66.7 °F 69% 29.95 in 10.0 mi North 6.9 mph - N/A   Clear
10:35 AM 78.1 °F - 66.9 °F 68% 29.95 in 10.0 mi NNW 4.6 mph - N/A   Clear
10:55 AM 78.8 °F - 66.7 °F 66% 29.95 in 10.0 mi NNW 8.1 mph - N/A   Clear
11:15 AM 78.6 °F - 67.1 °F 68% 29.96 in 10.0 mi North 6.9 mph - N/A   Clear
11:35 AM 79.9 °F - 67.1 °F 65% 29.96 in 10.0 mi NNE 6.9 mph - N/A   Scattered Clouds
11:55 AM 80.8 °F 83.2 °F 67.3 °F 63% 29.97 in 10.0 mi North 8.1 mph - N/A   Scattered Clouds
12:15 PM 81.0 °F 83.3 °F 66.9 °F 62% 29.96 in 10.0 mi North 10.4 mph - N/A   Scattered Clouds
12:35 PM 81.1 °F 83.2 °F 66.2 °F 60% 29.97 in 10.0 mi NNW 10.4 mph - N/A   Scattered Clouds
12:55 PM 81.3 °F 83.6 °F 66.7 °F 61% 29.97 in 10.0 mi North 10.4 mph - N/A   Scattered Clouds
1:15 PM 80.8 °F 83.1 °F 66.6 °F 62% 29.97 in 10.0 mi North 10.4 mph 16.1 mph N/A   Scattered Clouds
1:35 PM 81.7 °F 84.2 °F 66.9 °F 61% 29.97 in 10.0 mi North 15.0 mph - N/A   Clear
1:55 PM 79.9 °F - 67.8 °F 66% 29.98 in 10.0 mi NNW 12.7 mph 18.4 mph N/A   Scattered Clouds
2:15 PM 75.0 °F - 66.7 °F 75% 29.99 in 10.0 mi North 12.7 mph 18.4 mph N/A   Mostly Cloudy
2:35 PM 74.3 °F - 66.0 °F 75% 29.99 in 10.0 mi North 9.2 mph 17.3 mph N/A   Overcast
2:55 PM 74.7 °F - 65.8 °F 74% 30.00 in 10.0 mi North 15.0 mph 18.4 mph N/A   Mostly Cloudy
3:15 PM 73.2 °F - 65.5 °F 77% 30.01 in 10.0 mi North 12.7 mph - N/A   Overcast
3:35 PM 71.6 °F - 65.3 °F 80% 30.01 in 10.0 mi North 9.2 mph - N/A   Overcast
3:55 PM 69.6 °F - 63.3 °F 80% 30.02 in 10.0 mi North 10.4 mph 16.1 mph N/A   Overcast
4:15 PM 69.3 °F - 62.8 °F 80% 30.02 in 10.0 mi North 8.1 mph - N/A   Overcast
4:35 PM 68.2 °F - 62.1 °F 81% 30.04 in 10.0 mi NNE 10.4 mph - N/A   Overcast
4:55 PM 65.7 °F - 61.3 °F 86% 30.04 in 10.0 mi North 10.4 mph - N/A   Overcast
5:15 PM 64.4 °F - 60.8 °F 88% 30.06 in 10.0 mi NNE 9.2 mph - N/A   Overcast
5:35 PM 63.5 °F - 59.5 °F 87% 30.07 in 10.0 mi NNE 10.4 mph 19.6 mph N/A   Overcast
5:55 PM 62.6 °F - 59.2 °F 89% 30.08 in 10.0 mi NNE 9.2 mph - N/A   Overcast
6:15 PM 62.4 °F - 59.2 °F 89% 30.09 in 10.0 mi NNE 8.1 mph - N/A   Overcast
6:35 PM 62.6 °F - 58.3 °F 86% 30.09 in 10.0 mi NNE 9.2 mph - N/A   Overcast
6:55 PM 62.1 °F - 57.2 °F 84% 30.09 in 10.0 mi NE 6.9 mph 16.1 mph N/A   Overcast
7:15 PM 61.2 °F - 56.1 °F 83% 30.10 in 10.0 mi ENE 10.4 mph - N/A   Mostly Cloudy
7:35 PM 60.4 °F - 55.9 °F 85% 30.11 in 10.0 mi NE 4.6 mph - N/A   Mostly Cloudy
7:55 PM 60.4 °F - 56.3 °F 86% 30.12 in 10.0 mi NE 3.5 mph - N/A   Overcast
8:15 PM 59.5 °F - 55.6 °F 87% 30.13 in 10.0 mi NNE 4.6 mph - N/A   Scattered Clouds
8:35 PM 58.5 °F - 54.9 °F 88% 30.13 in 10.0 mi NNE 5.8 mph - N/A   Clear
8:55 PM 57.4 °F - 54.0 °F 88% 30.14 in 10.0 mi NNE 3.5 mph - N/A   Clear
9:15 PM 56.8 °F - 53.1 °F 87% 30.14 in 10.0 mi NNE 4.6 mph - N/A   Clear
9:35 PM 56.3 °F - 52.7 °F 88% 30.14 in 10.0 mi NNE 3.5 mph - N/A   Clear
9:55 PM 55.6 °F - 52.2 °F 88% 30.14 in 10.0 mi Calm Calm - N/A   Clear
10:15 PM 55.0 °F - 51.1 °F 86% 30.15 in 10.0 mi NE 3.5 mph - N/A   Clear
10:35 PM 54.5 °F - 50.5 °F 86% 30.15 in 10.0 mi NNE 3.5 mph - N/A   Clear
10:55 PM 53.8 °F - 50.0 °F 87% 30.15 in 10.0 mi Calm Calm - N/A   Clear
11:15 PM 52.3 °F - 49.5 °F 90% 30.14 in 10.0 mi Calm Calm - N/A   Clear
11:35 PM 52.9 °F - 49.3 °F 88% 30.14 in 10.0 mi NE 4.6 mph - N/A   Clear
11:55 PM 52.3 °F - 49.3 °F 89% 30.15 in 10.0 mi NE 4.6 mph - N/A   Clear